Dewpoint
50 50 49 49 48 48 47 47 46 45 45 44 42 41 40 39 38 38 37 38 38 38 38 38 38 38 37 37 37 37 37 37 37 37 36 37 37 37 36 36 34 34 33 33 33 33 33 33 33 33 33 32 32 32 32 31 31 31 31 31 31 30 29 29 29 29 30 29 29
50 50 49 48 47 47 47 47 46 46 46 45 43 42 41 40 39 38 37 37 38 38 38 38 38 37 37 37 37 37 37 37 37 37 36 37 36 36 36 35 35 34 33 33 33 33 33 33 33 33 33 33 33 32 32 32 31 31 31 31 31 31 30 29 29 30 30 29 29
50 50 50 49 48 48 48 47 47 46 46 45 44 43 42 41 40 38 38 37 37 37 37 38 37 37 37 37 38 38 38 37 37 37 37 37 36 36 36 35 35 34 33 33 33 33 34 33 33 33 33 33 33 33 33 33 32 32 31 31 32 31 31 30 30 30 30 30 29
50 50 50 49 49 48 48 47 47 47 46 45 44 43 42 42 41 40 38 37 36 36 36 37 37 37 37 37 38 38 38 37 37 37 37 37 36 36 36 35 35 34 33 33 33 33 34 34 34 34 33 33 33 33 33 33 33 33 33 32 32 32 32 31 31 31 30 30 29
49 49 50 49 49 49 48 48 47 47 46 46 45 44 43 42 42 40 39 37 36 36 36 36 36 37 37 37 38 38 38 37 36 36 37 37 36 36 36 35 35 34 34 33 34 34 34 34 34 34 34 34 33 33 33 33 33 33 33 33 33 33 33 32 32 31 31 31 30
49 49 49 49 49 49 48 48 47 47 47 46 45 44 43 43 42 41 40 38 38 37 37 36 36 36 37 37 38 38 37 37 37 37 37 36 36 36 36 35 35 34 34 34 34 34 35 35 35 35 35 36 37 36 34 34 33 33 33 33 33 33 33 33 33 33 32 32 32
49 49 49 49 49 49 49 48 47 47 47 46 45 45 44 43 43 42 41 40 39 38 36 35 35 36 37 37 37 38 38 37 37 37 37 36 36 36 35 35 35 35 34 34 35 35 36 36 40 39 38 40 42 38 35 34 33 33 33 33 34 34 34 33 34 33 33 32 31
48 49 49 49 49 49 49 48 48 47 47 46 46 45 45 44 43 42 42 41 40 38 37 35 36 36 37 37 37 37 37 37 37 37 37 37 36 36 35 35 35 35 35 35 36 37 39 41 42 42 41 41 41 38 35 34 34 33 33 33 34 34 34 33 33 33 32 31 30
48 48 48 49 49 49 48 48 48 47 47 47 46 46 45 45 43 43 42 42 40 38 37 36 36 36 37 37 36 36 36 36 36 37 37 37 37 37 36 36 36 36 36 36 38 39 41 42 43 42 42 41 40 38 36 34 33 33 33 33 36 36 35 33 33 33 32 31 30
48 48 48 48 48 48 48 48 48 47 47 47 47 47 46 44 43 43 43 42 41 39 38 37 36 36 36 36 36 36 36 36 36 36 36 36 36 36 36 36 36 36 37 37 39 41 42 42 42 42 41 42 41 38 36 34 34 34 35 38 36 35 33 33 33 32 32 31 31
48 48 48 48 48 48 48 48 48 47 47 47 47 47 46 44 44 44 43 42 41 40 39 38 37 36 36 36 36 36 36 36 35 36 36 35 35 35 35 35 36 36 36 36 39 41 41 40 41 39 39 42 40 38 35 34 34 34 34 36 34 33 33 33 33 33 33 33 33
48 48 48 48 48 48 48 48 48 47 47 47 47 46 46 45 45 44 43 42 42 41 39 38 38 37 36 36 36 36 36 36 35 35 35 35 35 35 35 36 36 36 36 36 38 40 40 37 38 38 38 40 40 38 36 34 35 34 34 33 33 34 35 33 33 34 34 35 35
48 48 48 48 48 48 48 48 48 48 47 47 47 47 46 46 45 44 43 42 42 41 40 39 38 37 37 36 36 36 36 36 35 35 35 35 35 35 35 36 36 36 36 36 37 38 38 36 36 36 36 38 38 37 36 35 35 35 34 35 35 36 35 33 35 36 36 36 37
48 48 48 48 48 48 48 48 48 48 47 47 47 47 46 46 45 44 43 43 42 41 40 39 38 38 37 37 37 36 36 36 35 35 35 35 35 35 35 35 36 36 36 37 37 37 38 36 36 35 35 36 36 36 36 35 35 35 35 36 36 35 34 34 36 37 38 38 38
48 48 48 48 48 48 48 48 48 48 48 47 47 47 47 46 45 44 44 43 42 42 41 40 39 38 38 37 37 36 36 36 36 35 35 35 34 35 35 35 36 36 36 36 37 37 37 36 35 35 35 35 35 35 34 34 34 35 35 36 35 34 34 35 38 38 39 39 39
48 48 48 48 48 48 48 48 48 48 48 48 47 47 47 47 46 45 44 43 42 42 41 40 39 39 38 37 37 37 36 36 36 35 35 35 34 34 35 35 36 36 36 36 36 37 37 37 36 35 34 34 34 34 34 33 34 35 35 35 34 33 34 36 39 40 40 40 41
48 48 48 48 48 48 48 48 48 48 48 48 48 47 47 47 47 46 44 43 43 42 41 40 40 39 38 38 37 37 36 36 36 35 35 35 34 34 35 35 36 36 37 37 36 36 36 37 37 36 35 34 34 34 34 34 35 35 34 34 33 34 35 38 40 41 41 41 41
48 48 48 48 48 48 48 48 48 48 48 48 48 48 47 47 47 46 45 44 43 42 41 40 40 39 38 38 38 37 37 36 36 36 35 35 35 34 35 35 36 37 37 37 36 36 36 36 36 35 35 35 35 34 34 34 35 34 34 34 34 36 38 41 42 42 42 42 42
49 49 48 48 48 48 48 48 48 49 49 48 48 48 48 47 47 47 46 44 43 42 42 40 40 39 38 38 38 37 37 37 36 36 36 35 35 35 35 35 36 37 37 37 37 36 36 36 36 36 35 35 35 35 35 35 35 35 35 36 38 39 41 43 43 43 43 43 42
49 49 49 49 49 49 49 49 49 49 49 49 49 48 48 47 47 47 46 45 44 42 42 41 40 39 38 38 38 37 37 37 37 36 36 36 36 35 35 35 36 37 37 38 37 37 37 36 36 36 36 35 35 35 35 35 35 36 37 39 41 42 43 44 44 44 44 43 43
50 50 50 49 49 49 49 49 49 49 49 49 49 49 48 48 47 47 46 45 44 43 42 41 40 39 38 38 38 38 37 37 37 37 37 36 36 36 36 36 36 36 37 37 38 37 37 37 36 36 36 36 36 36 35 35 37 38 40 42 42 43 44 44 44 44 43 43 42
50 50 50 50 50 50 50 50 50 50 50 50 50 49 49 48 47 47 46 46 44 43 42 41 41 39 38 38 38 38 38 38 38 38 37 37 37 37 37 37 37 36 36 37 37 37 37 37 37 37 37 36 36 36 36 37 38 40 42 43 43 43 43 43 43 43 43 42 42
51 51 51 51 51 50 50 50 50 50 50 50 50 50 49 48 48 47 47 46 44 43 42 42 42 40 39 38 38 38 38 39 39 38 38 38 38 37 37 38 38 37 37 37 37 37 37 38 38 37 37 37 36 36 37 38 40 42 42 43 43 43 43 43 42 42 42 41 41
52 51 51 52 52 52 52 52 51 51 51 51 50 50 49 49 48 47 47 45 44 43 42 42 41 41 40 39 39 38 39 39 39 39 39 39 38 38 37 37 37 37 38 40 41 40 39 39 38 38 37 37 36 37 38 40 41 42 42 43 43 43 43 42 42 41 40 39 39
52 52 52 52 52 53 54 54 54 53 52 51 51 50 50 49 48 47 46 45 44 43 42 41 41 41 41 40 40 39 39 39 39 40 41 41 39 38 37 37 38 38 40 41 40 39 38 39 39 38 38 37 37 38 40 41 42 42 42 42 42 42 42 42 41 40 39 39 38
52 52 52 52 52 52 53 53 54 54 54 52 51 50 49 49 48 47 46 45 43 43 42 42 41 41 41 40 40 40 40 40 40 41 41 42 40 38 38 38 38 40 41 40 38 38 38 38 38 38 38 38 38 40 41 42 42 42 42 42 42 42 42 41 41 41 40 39 38
51 51 51 51 51 51 51 52 52 53 53 52 52 51 50 49 48 47 46 44 43 42 42 42 41 40 40 40 39 39 39 40 41 41 42 42 41 39 38 38 38 40 41 39 38 37 37 38 38 38 38 40 40 41 42 42 42 42 41 41 41 41 41 41 41 41 41 40 39
51 51 51 51 51 51 51 51 52 52 52 51 52 52 53 51 50 48 45 44 42 42 41 41 41 41 41 42 40 39 39 40 42 44 44 42 42 41 39 39 39 40 40 38 38 37 37 38 38 38 38 39 41 42 42 42 42 41 41 41 40 40 40 40 41 41 41 40 39
52 52 52 51 51 51 51 51 51 51 51 51 51 52 54 53 51 49 46 43 42 42 42 42 42 42 43 42 42 42 42 44 46 47 48 47 47 46 45 43 40 38 38 38 37 37 38 38 38 39 39 40 41 42 42 42 42 41 41 41 40 40 40 40 41 41 41 40 39
53 53 52 51 51 51 51 52 52 52 52 52 52 53 54 53 52 50 46 42 42 42 43 43 43 43 43 43 44 46 47 47 48 48 48 47 47 46 45 42 39 38 38 37 38 38 38 39 39 39 39 40 41 42 43 42 42 42 41 41 40 40 40 40 40 39 39 39 38
53 53 52 52 51 52 52 52 52 52 51 50 51 51 52 52 52 50 48 47 46 46 46 46 45 44 44 45 47 47 47 47 47 47 47 46 44 43 41 40 39 39 38 38 38 38 39 39 39 39 39 39 41 42 43 42 42 42 42 41 40 40 39 39 39 38 38 38 37
53 53 52 52 51 51 51 51 51 50 50 50 51 51 51 51 52 52 52 51 51 49 48 48 46 45 46 47 48 47 47 46 47 46 46 45 44 43 42 39 40 39 38 38 38 39 39 39 39 39 39 39 40 42 42 42 42 41 41 40 40 39 39 39 39 38 37 36 36
53 53 52 51 51 50 50 50 50 50 51 51 52 51 51 51 51 51 51 50 49 48 48 47 47 47 47 47 47 47 46 45 45 44 44 44 44 43 41 39 40 39 38 38 39 39 39 39 39 39 39 39 40 41 41 41 41 40 39 39 39 38 38 38 38 37 36 35 34
53 53 52 52 51 51 51 51 51 51 51 51 51 50 50 50 50 50 49 48 48 48 48 48 48 48 47 45 46 46 44 43 44 44 44 44 43 42 40 40 40 39 38 38 39 39 39 39 39 39 39 38 40 41 40 40 39 39 38 38 37 37 36 36 35 35 34 33 32
53 53 53 52 51 52 52 52 52 51 51 50 50 49 49 50 49 49 48 47 47 47 47 47 48 47 46 44 45 44 43 42 43 44 43 43 43 42 41 40 40 39 38 39 39 39 39 40 39 39 39 39 40 40 39 38 38 37 37 36 35 34 33 32 32 31 31 30 29
52 53 52 52 52 52 52 52 51 51 50 49 49 49 49 49 49 48 47 46 47 47 47 46 46 45 43 42 43 43 42 43 43 42 42 42 42 42 42 41 41 40 39 39 39 39 40 40 40 39 39 40 39 38 38 37 36 35 34 33 33 31 30 29 29 29 28 27 27
52 52 52 52 52 52 52 52 51 51 51 50 49 49 49 48 48 48 47 46 46 45 44 44 45 44 42 42 42 43 43 44 43 42 41 41 42 42 42 42 42 40 39 39 39 40 40 40 40 40 40 40 39 38 37 35 34 33 32 31 30 29 28 28 27 27 26 26 26
52 52 52 52 51 51 52 52 52 51 51 51 50 49 49 48 48 47 47 45 44 43 42 43 44 43 43 43 43 43 43 44 43 42 42 42 42 42 42 42 42 41 39 39 39 39 40 40 40 39 39 39 38 37 36 35 33 32 30 29 28 27 27 26 25 25 26 26 28
52 52 52 52 51 52 52 52 52 52 51 51 50 49 48 48 48 47 46 44 44 42 42 42 43 43 43 43 43 43 43 43 43 42 42 42 42 42 42 42 42 40 38 38 38 39 39 39 39 38 38 38 37 36 34 34 32 29 27 26 26 26 25 24 24 25 26 27 32
52 52 52 52 51 51 51 51 51 51 51 51 50 49 48 47 47 46 46 45 44 44 43 43 43 43 43 42 43 43 43 43 43 43 42 42 42 42 41 41 39 38 37 37 38 38 38 38 38 38 36 34 34 33 32 31 29 26 24 24 24 25 25 25 25 26 26 27 30
52 52 52 52 51 51 51 51 51 51 51 51 50 49 47 46 45 46 46 46 45 44 43 43 43 43 43 42 42 42 42 42 42 42 42 42 41 41 40 39 37 36 35 36 36 36 37 37 36 35 34 32 31 30 29 29 27 25 24 24 24 24 25 26 26 26 26 26 26